Tracking 20721 objects as of 1-Jun-2020
HD Live streaming from Space Station
objects crossing your sky now

THORAD AGENA D DEB

Track THORAD AGENA D DEB now!
10-day predictions


NORAD ID: 4187
Int'l Code: 1969-082BA
Perigee: 663.5 km
Apogee: 700.7 km
Inclination: 70.0 °
Period: 98.2 minutes
Semi major axis: 7053 km
RCS: 0.0694 m2 (small)
Launch date: September 30, 1969
Source: United States (US)
Launch site: AIR FORCE WESTERN TEST RANGE (AFWTR)

Note: This is SATELLITE DEBRIS
aabbcc
Your satellite tracking list
Your tracking list is empty




NASA's NSSDC Master Catalog

Two Line Element Set (TLE):
1  4187U 69082BA  20151.63433172 +.00000363 +00000-0 +79406-4 0  9995
2  4187 069.9636 122.7950 0026368 116.6914 243.6932 14.65655327663019
Source of the keplerian elements: AFSPC